Minot AFB, ND

5:12 AM CST on November 21, 2017 (GMT -0600)
Minot Air Force Base

Weather History for KMIB - January, 2013

Change the Weather History Date:

Thursday, January 3, 2013

  Actual Average Record
Temperature  
Mean Temperature 19 °F -  
Max Temperature 28 °F 17 °F 43 °F (2012)
Min Temperature 10 °F 0 °F -23 °F (1998)
Degree Days  
Heating Degree Days 46    
Moisture  
Dew Point 11 °F    
Average Humidity 77    
Maximum Humidity 92    
Minimum Humidity 58    
Precipitation  
Precipitation 0.00 in - - ()
Sea Level Pressure  
Sea Level Pressure 30.20 in    
Wind  
Wind Speed 10 mph (West)    
Max Wind Speed 20 mph    
Max Gust Speed 23 mph    
Visibility 10 miles    
Events      
Averages and records for this station are not official NWS values.
T = Trace of Precipitation, MM = Missing Value Source: NWS Daily Summary

Daily Weather History Graph

Daily Weather History Graph

Search for Another Location

Airport or City:

Trip Planner

Search our weather history database for the weather conditions in past years. The results will help you decide how hot, cold, wet, or windy it might be!

Date:

Astronomy

Jan. 03, 2013 Rise Set
Actual Time 8:36 AM CST 5:03 PM CST
Civil Twilight 8:00 AM CST 5:40 PM CST
Nautical Twilight 7:20 AM CST 6:19 PM CST
Astronomical Twilight 6:42 AM CST 6:57 PM CST
Moon No Moon Rise 11:17 AM CST (1/3)
Length of Visible Light 9h 39m
Length of Day
8h 26m
Waning Gibbous, 65% of the Moon is Illuminated
Jan 3
Waning Gibbous
Jan 4
Last Quarter
Jan 11
New
Jan 18
First Quarter
Jan 26
Full

Hourly Weather History & Observations

Time (CST) Temp. Windchill Dew Point Humidity Pressure Visibility Wind Dir Wind Speed Gust Speed Precip Events Conditions
12:04 AM 10.4 °F -1.5 °F 6.8 °F 85% 30.34 in 10.0 mi WNW 8.1 mph - N/A   Overcast
12:16 AM 10.4 °F -2.4 °F 6.8 °F 85% 30.34 in 10.0 mi West 9.2 mph - N/A   Overcast
12:21 AM 12.2 °F -1.0 °F 8.6 °F 85% 30.34 in 10.0 mi West 10.4 mph - N/A   Overcast
12:37 AM 14.0 °F 1.2 °F 10.4 °F 86% 30.34 in 10.0 mi WNW 10.4 mph - N/A   Overcast
12:46 AM 15.8 °F 5.1 °F 10.4 °F 79% 30.33 in 10.0 mi WNW 8.1 mph - N/A   Overcast
12:55 AM 15.3 °F 3.5 °F 10.9 °F 83% 30.32 in 10.0 mi West 9.2 mph - N/A   Overcast
1:55 AM 14.7 °F -0.5 °F 9.9 °F 81% 30.32 in 10.0 mi West 15.0 mph - N/A   Overcast
2:06 AM 12.2 °F -2.5 °F 8.6 °F 85% 30.32 in 10.0 mi West 12.7 mph - N/A   Scattered Clouds
2:16 AM 12.2 °F -0.2 °F 8.6 °F 85% 30.32 in 10.0 mi West 9.2 mph - N/A   Mostly Cloudy
2:25 AM 12.2 °F -1.0 °F 6.8 °F 79% 30.32 in 10.0 mi West 10.4 mph - N/A   Scattered Clouds
2:28 AM 12.2 °F -1.0 °F 6.8 °F 79% 30.32 in 10.0 mi West 10.4 mph - N/A   Mostly Cloudy
2:55 AM 10.9 °F -1.8 °F 7.2 °F 85% 30.30 in 10.0 mi WSW 9.2 mph - N/A   Overcast
3:55 AM 13.6 °F 0.0 °F 10.2 °F 86% 30.30 in 10.0 mi West 11.5 mph - N/A   Overcast
4:35 AM 14.0 °F 2.9 °F 10.4 °F 86% 30.29 in 10.0 mi West 8.1 mph - N/A   Scattered Clouds
4:36 AM 14.0 °F 2.9 °F 10.4 °F 86% 30.29 in 10.0 mi West 8.1 mph - N/A   Mostly Cloudy
4:55 AM 13.3 °F 3.0 °F 10.0 °F 87% 30.29 in 10.0 mi WNW 6.9 mph - N/A   Mostly Cloudy
5:24 AM 12.2 °F 4.3 °F 10.4 °F 92% 30.27 in 10.0 mi WSW 4.6 mph - N/A   Scattered Clouds
5:55 AM 13.6 °F 2.5 °F 10.8 °F 88% 30.26 in 10.0 mi WSW 8.1 mph - N/A   Scattered Clouds
6:55 AM 14.5 °F 1.9 °F 11.5 °F 88% 30.22 in 10.0 mi WSW 10.4 mph - N/A   Clear
7:55 AM 15.8 °F 0.9 °F 12.0 °F 85% 30.19 in 10.0 mi WSW 15.0 mph - N/A   Clear
8:55 AM 16.9 °F 0.3 °F 12.6 °F 83% 30.17 in 10.0 mi WSW 19.6 mph - N/A   Clear
10:55 AM 22.1 °F 12.0 °F 14.2 °F 72% 30.13 in 10.0 mi SW 9.2 mph - N/A   Clear
11:55 AM 23.7 °F 9.7 °F 14.9 °F 69% 30.10 in 10.0 mi West 18.4 mph - N/A   Clear
12:55 PM 26.8 °F 14.1 °F 15.8 °F 63% 30.06 in 10.0 mi WSW 17.3 mph - N/A   Clear
1:55 PM 27.5 °F 15.0 °F 15.4 °F 61% 30.03 in 10.0 mi WSW 17.3 mph 23.0 mph N/A   Clear
2:55 PM 28.6 °F 17.2 °F 15.4 °F 58% 30.03 in 10.0 mi West 15.0 mph 23.0 mph N/A   Clear
3:55 PM 27.7 °F 17.1 °F 14.5 °F 58% 30.01 in 10.0 mi WSW 12.7 mph - N/A   Clear
4:55 PM 25.0 °F 18.1 °F 13.8 °F 63% 30.04 in 10.0 mi West 5.8 mph - N/A   Clear
5:55 PM 22.8 °F 12.9 °F 12.6 °F 65% 30.04 in 10.0 mi West 9.2 mph - N/A   Clear
6:55 PM 21.7 °F 9.6 °F 12.6 °F 68% 30.04 in 10.0 mi WSW 12.7 mph - N/A   Clear
7:55 PM 21.0 °F 10.6 °F 12.7 °F 70% 30.03 in 10.0 mi WSW 9.2 mph - N/A   Clear
8:55 PM 21.6 °F 8.2 °F 12.9 °F 69% 30.02 in 10.0 mi West 15.0 mph - N/A   Clear
9:55 PM 23.2 °F 18.7 °F 13.3 °F 66% 30.04 in 10.0 mi West 3.5 mph - N/A   Clear
10:55 PM 23.7 °F 10.5 °F 14.2 °F 67% 30.04 in 10.0 mi WNW 16.1 mph - N/A   Clear
11:55 PM 25.9 °F 12.9 °F 14.7 °F 63% 30.04 in 10.0 mi WNW 17.3 mph - N/A   Clear